Weather History for McGuire AFB, NJ

Change the Weather History Date:

Thursday, March 21, 2013

  Actual Average Record
Temperature  
Mean Temperature 33 °F -  
Max Temperature 39 °F 51 °F 69 °F (2012)
Min Temperature 27 °F 31 °F 22 °F (2009)
Degree Days  
Heating Degree Days 32    
Moisture  
Dew Point 18 °F    
Average Humidity 55    
Maximum Humidity 88    
Minimum Humidity 35    
Precipitation  
Precipitation 0.00 in - - ()
Sea Level Pressure  
Sea Level Pressure 29.73 in    
Wind  
Wind Speed 10 mph (NNW)    
Max Wind Speed 17 mph    
Max Gust Speed 23 mph    
Visibility 10 miles    
Events      
Averages and records for this station are not official NWS values.
T = Trace of Precipitation, MM = Missing Value Source: NWS Daily Summary

Daily Weather History Graph

Daily Weather History Graph

Search for Another Location

Airport:

Trip Planner

Search our weather history database for the weather conditions in past years. The results will help you decide how hot, cold, wet, or windy it might be!

Date:

Astronomy

Mar. 21, 2013 Rise Set
Actual Time 6:59 AM EDT 7:11 PM EDT
Civil Twilight 6:32 AM EDT 7:38 PM EDT
Nautical Twilight 6:01 AM EDT 8:10 PM EDT
Astronomical Twilight 5:28 AM EDT 8:42 PM EDT
Moon 1:39 PM EDT 3:19 AM EDT
Length of Visible Light 13h 05m
Length of Day
12h 11m
Waxing Gibbous, 68% of the Moon is Illuminated
Mar 21
Waxing Gibbous
Mar 27
Full
Apr 3
Last Quarter
Apr 10
New
Apr 18
First Quarter

Hourly Weather History & Observations

Time (EDT) Temp. Windchill Dew Point Humidity Pressure Visibility Wind Dir Wind Speed Gust Speed Precip Events Conditions
12:55 AM 39.4 °F 35.2 °F 19.0 °F 44% 29.79 in 10.0 mi North 5.8 mph - N/A   Mostly Cloudy
1:55 AM 35.8 °F 28.3 °F 22.3 °F 58% 29.78 in 10.0 mi North 10.4 mph - N/A   Partly Cloudy
2:55 AM 33.6 °F 25.6 °F 23.4 °F 66% 29.78 in 10.0 mi NNW 10.4 mph - N/A   Clear
3:55 AM 32.0 °F 23.6 °F 25.0 °F 75% 29.77 in 10.0 mi North 10.4 mph - N/A   Clear
4:55 AM 29.7 °F 22.8 °F 25.2 °F 83% 29.75 in 10.0 mi North 6.9 mph - N/A   Clear
5:55 AM 27.7 °F 21.3 °F 24.6 °F 88% 29.76 in 10.0 mi NNW 5.8 mph - N/A   Mostly Cloudy
6:55 AM 30.7 °F 23.3 °F 27.1 °F 86% 29.76 in 10.0 mi NNW 8.1 mph - N/A   Overcast
7:55 AM 31.6 °F 23.1 °F 25.2 °F 77% 29.77 in 10.0 mi North 10.4 mph - N/A   Overcast
8:55 AM 31.8 °F 21.4 °F 22.6 °F 69% 29.76 in 10.0 mi NNW 15.0 mph - N/A   Overcast
9:02 AM 32.0 °F 22.5 °F 23.0 °F 69% 29.76 in 10.0 mi North 12.7 mph - N/A   Overcast
9:25 AM 32.0 °F 22.5 °F 21.2 °F 64% 29.75 in 10.0 mi North 12.7 mph - N/A   Overcast
9:39 AM 32.0 °F 23.0 °F 21.2 °F 64% 29.75 in 10.0 mi NNW 11.5 mph - N/A   Mostly Cloudy
9:55 AM 31.6 °F 24.4 °F 21.6 °F 66% 29.75 in 10.0 mi North 8.1 mph - 0.00 in   Mostly Cloudy
10:09 AM 32.0 °F 23.0 °F 21.2 °F 64% 29.75 in 10.0 mi North 11.5 mph - N/A   Overcast
10:55 AM 33.6 °F 25.6 °F 18.0 °F 53% 29.74 in 10.0 mi NW 10.4 mph - 0.00 in   Overcast
11:55 AM 33.4 °F 25.4 °F 15.6 °F 48% 29.73 in 10.0 mi North 10.4 mph - N/A   Overcast
12:02 PM 33.8 °F 27.0 °F 15.8 °F 48% 29.73 in 10.0 mi NNW 8.1 mph 20.7 mph N/A   Overcast
12:21 PM 33.8 °F 24.8 °F 17.6 °F 52% 29.72 in 10.0 mi NNW 12.7 mph - N/A   Overcast
12:38 PM 32.0 °F 23.0 °F 15.8 °F 51% 29.72 in 10.0 mi North 11.5 mph - N/A   Overcast
12:43 PM 32.0 °F 22.5 °F 17.6 °F 55% 29.71 in 10.0 mi NNW 12.7 mph - N/A   Mostly Cloudy
12:52 PM 33.8 °F 24.3 °F 17.6 °F 52% 29.71 in 10.0 mi North 13.8 mph - N/A   Mostly Cloudy
12:55 PM 32.9 °F 24.7 °F 17.8 °F 54% 29.71 in 10.0 mi NNW 10.4 mph - 0.00 in   Mostly Cloudy
1:20 PM 33.8 °F 29.6 °F 17.6 °F 52% 29.70 in 10.0 mi NNE 4.6 mph - N/A   Overcast
1:27 PM 33.8 °F 26.4 °F 17.6 °F 52% 29.71 in 10.0 mi NNW 9.2 mph - N/A   Overcast
1:28 PM 33.8 °F 27.0 °F 17.6 °F 52% 29.70 in 10.0 mi North 8.1 mph - N/A   Mostly Cloudy
1:38 PM 33.8 °F 27.0 °F 15.8 °F 48% 29.70 in 10.0 mi NW 8.1 mph - N/A   Mostly Cloudy
1:44 PM 33.8 °F 25.8 °F 17.6 °F 52% 29.70 in 10.0 mi North 10.4 mph - N/A   Mostly Cloudy
1:54 PM 32.0 °F 27.5 °F 17.6 °F 55% 29.70 in 10.0 mi North 4.6 mph 18.4 mph N/A   Mostly Cloudy
1:55 PM 32.4 °F 27.9 °F 17.4 °F 54% 29.70 in 10.0 mi North 4.6 mph 18.4 mph 0.00 in   Mostly Cloudy
2:08 PM 33.8 °F 26.4 °F 15.8 °F 48% 29.69 in 10.0 mi West 9.2 mph - N/A   Mostly Cloudy
2:55 PM 37.6 °F 30.0 °F 15.1 °F 40% 29.67 in 10.0 mi WNW 11.5 mph 20.7 mph 0.00 in   Mostly Cloudy
3:55 PM 39.0 °F 29.9 °F 16.3 °F 40% 29.65 in 10.0 mi NW 17.3 mph 23.0 mph N/A   Overcast
4:55 PM 37.8 °F 29.8 °F 14.7 °F 39% 29.65 in 10.0 mi NW 12.7 mph - N/A   Overcast
5:55 PM 37.0 °F 28.5 °F 12.2 °F 36% 29.66 in 10.0 mi West 13.8 mph - N/A   Overcast
6:55 PM 35.2 °F 27.1 °F 9.9 °F 35% 29.68 in 10.0 mi WNW 11.5 mph - N/A   Mostly Cloudy
7:55 PM 33.4 °F 25.4 °F 10.9 °F 39% 29.71 in 10.0 mi West 10.4 mph - N/A   Mostly Cloudy
8:55 PM 32.0 °F 24.2 °F 11.5 °F 43% 29.73 in 10.0 mi WNW 9.2 mph - N/A   Scattered Clouds
9:55 PM 30.6 °F 22.4 °F 10.8 °F 44% 29.75 in 10.0 mi WNW 9.2 mph - N/A   Clear
10:55 PM 29.7 °F 21.3 °F 11.1 °F 46% 29.76 in 10.0 mi WNW 9.2 mph - N/A   Clear
11:55 PM 28.6 °F 19.9 °F 10.8 °F 47% 29.78 in 10.0 mi WNW 9.2 mph - N/A   Clear